Regional Weather Roundup
Issued by NWS

Home | Current Version | Previous Version | Graphics & Text | Print | Product List | Glossary Off
Versions: 1 2 3 4 5 6 7 8 9 10 11 12 13 14 15 16 17 18 19 20 21 22 23 24 25 26 27 28 29 30 31 32 33 34 35 36 37 38 39 40 41 42 43 44 45 46 47 48 49 50

000
ASUS43 KMKX 252121
RWRWI

WISCONSIN REGIONAL WEATHER ROUNDUP
NATIONAL WEATHER SERVICE MILWAUKEE/SULLIVAN WI
300 PM CST SAT FEB 25 2017

NOTE: "FAIR" INDICATES FEW OR NO CLOUDS BELOW 12,000 FEET WITH NO
SIGNIFICANT WEATHER AND/OR OBSTRUCTIONS TO VISIBILITY.

WIZ001-002-006>008-014>016-023>028-252200-
NORTHWEST WISCONSIN

CITY           SKY/WX    TMP DP  RH WIND       PRES   REMARKS
SUPERIOR ARPT  SUNNY     29  13  50 W12       29.82F WCI  20
ASHLAND        MOSUNNY   26   9  48 W14G20    29.81S WCI  14
HAYWARD        MOSUNNY   28   6  39 NW9G16    29.80F WCI  19
SIREN          SUNNY     31   9  41 W10G20    29.85S WCI  22
CUMBERLAND     MOSUNNY   28  10  47 W15G24    29.84S WCI  17
RICE LAKE      MOSUNNY   28  10  45 W10G17    29.86F WCI  19
CHETEK         MOSUNNY   29  10  44 NW8       29.85F WCI  21
LADYSMITH      MOSUNNY   26   7  43 W13G18    29.84S WCI  15
EAU CLAIRE     SUNNY     26   8  46 W8        29.88S WCI  18
MENOMONIE      SUNNY     29   9  43 W13       29.89S WCI  19
NEW RICHMOND   MOSUNNY   32  10  40 NW13G18   29.87F WCI  22
OSCEOLA        MOSUNNY   33  13  44 W10G18    29.90F WCI  25
$$

WIZ003>005-009-010-017-018-252200-
NORTH CENTRAL WISCONSIN

CITY           SKY/WX    TMP DP  RH WIND       PRES   REMARKS
MANITOWISH WTR MOSUNNY   20   9  63 W15G22    29.73S WCI   6
ARBOR VITAE    SUNNY     22  10  61 NW10G20     N/A  WCI  11
WOODRUFF       SUNNY     22  10  61 NW10G20     N/A  WCI  11
RHINELANDER    MOSUNNY   21   8  57 W13       29.75R WCI   9
EAGLE RIVER    CLOUDY    18   8  65 W14G24    29.73R WCI   4
LAND O LAKES   FLURRIES  19  11  72 W9G16     29.73R WCI   8
PHILLIPS       SUNNY     24   6  44 W10       29.77R WCI  14
TOMAHAWK       SUNNY     23   8  52 NW12G18   29.78R WCI  11
MEDFORD        SUNNY     23   6  48 NW13      29.79S WCI  11
MERRILL        NOT AVBL
$$

WIZ029-030-035-036-043>047-252200-
CENTRAL WISCONSIN

CITY           SKY/WX    TMP DP  RH WIND       PRES   REMARKS
WAUSAU         SUNNY     21   7  54 W17       29.80R WCI   7
MOSINEE        MOSUNNY   21   9  58 W18       29.82R WCI   6
MARSHFIELD     SUNNY     21   6  52 W14       29.82R WCI   8
STEVENS POINT  SUNNY     19   6  58 W12G20    29.84R WCI   7
WAUPACA        MOSUNNY   24   9  52 W13G23    29.86R WCI  12
WAUTOMA        PTSUNNY   22  11  62 W16G25    29.87R WCI   8
WISC RAPIDS    SUNNY     23   6  48 NW14G24   29.86R WCI  11
CAMP DOUGLAS   MOSUNNY   23   9  54 W17G25    29.89R WCI   9
$$

WIZ011>013-019>022-031-037>040-048>050-252200-
NORTHEAST WISCONSIN

CITY           SKY/WX    TMP DP  RH WIND       PRES   REMARKS
ANTIGO         PTSUNNY   18   8  65 NW15      29.76R WCI   4
SHAWANO        CLOUDY    25  12  58 CALM      29.81R
OCONTO         CLOUDY    24  12  61 W18G26    29.78R WCI  10
STURGEON BAY   CLOUDY    25  15  66 W14G22    29.76R WCI  13
GREEN BAY      MOSUNNY   24  14  65 W20G26    29.81R WCI  10
MANITOWOC      FLURRIES  23  13  65 W17G28    29.82R WCI   9
APPLETON       PTSUNNY   21  10  63 W20       29.81R WCI   6
CLINTONVILLE   CLOUDY    23  10  58 W15G24    29.83R WCI  10
OSHKOSH        MOSUNNY   22  11  62 W15       29.84R WCI   9
$$

WIZ032>034-041-042-053>061-252200-
SOUTHWEST WISCONSIN

CITY           SKY/WX    TMP DP  RH WIND       PRES   REMARKS
LA CROSSE      SUNNY     28  10  46 NW8       29.95R WCI  20
SPARTA         SUNNY     26  11  51 NW14G21   29.92R WCI  15
VIROQUA        SUNNY     24  10  56 W9        29.91R WCI  14
BOSCOBEL       SUNNY     27  10  49 W13       29.96R WCI  16
PRAIRIE DU CHI SUNNY     27  10  47 NW10      29.98R WCI  17
PLATTEVILLE    SUNNY     25  17  70 W8        29.95R WCI  16
$$

WIZ056-057-062-063-064-067-068-252200-
SOUTH CENTRAL WISCONSIN

CITY           SKY/WX    TMP DP  RH WIND       PRES   REMARKS
REEDSBURG      SUNNY     24   8  51 NW13G20   29.90R WCI  12
BARABOO/DELLS  SUNNY     24  11  57 W10       29.89R WCI  13
LONE ROCK      SUNNY     26  10  50 W16G23    29.94R WCI  14
MINERAL POINT  SUNNY     27  16  63 CALM      29.92R
MADISON        MOSUNNY   24  13  62 NW15G23   29.89R WCI  11
MIDDLETON      MOSUNNY   25  16  68 W8        29.90R WCI  17
WATERTOWN      PTSUNNY   21  14  74 W10       29.89R WCI  10
MONROE         MOSUNNY   27  14  59 W17G24    29.90R WCI  14
JANESVILLE     PTSUNNY   27  16  63 W16G23    29.90R WCI  14
$$

WIZ051-052-058>065-066-070>072-252200-
SOUTHEAST WISCONSIN

CITY           SKY/WX    TMP DP  RH WIND       PRES   REMARKS
MILWAUKEE      FLURRIES  22   9  57 W16G25    29.88R WCI   8
WAUKESHA       CLOUDY    18  10  73 W20G25    29.88R WCI   1
MILWAUKEE/TIMM CLOUDY    19   9  63 W17G26    29.88R WCI   4
RACINE         CLOUDY    21   9  59 NW16G23   29.90R WCI   7
KENOSHA        CLOUDY    23  12  62 W14       29.89R WCI  11
FOND DU LAC    MOSUNNY   22  10  60 W16       29.86R WCI   8
SHEBOYGAN      CLOUDY    22  12  65 W14G23    29.83R WCI   9
WEST BEND      CLOUDY    21  16  79 W8        29.86R WCI  12
JUNEAU         CLOUDY    20  13  73 W7        29.88R WCI  11
$$

LSZ147-162-252200-
LAKE SUPERIOR

STATION/POSITION TIME  TEMP    WIND        PRES    WAVE
                       AIR SEA DIR/SP/G            HT/PER
                 (UTC) (F)     (DEG/KT/KT) (MB)    (FT/S)
DEVILS ISLAND    2100   25     250/ 17/ 21 1009.4S
PORT WING        2030   25     250/ 10/ 16 1010.2S
SAXON HARBOR     2040   26     300/ 12/ 16 1009.5R
$$

LMZ867-665-643>646-252200-
LAKE MICHIGAN

STATION/POSITION TIME  TEMP    WIND        PRES    WAVE
                       AIR SEA DIR/SP/G            HT/PER
                 (UTC) (F)     (DEG/KT/KT) (MB)    (FT/S)
CHAMBERS ISLAND  2040   28      CALM  /  2 1006.8R
NORTHPORT PIER   2114   26     300/  1/  2 1007.1R
SISTER BAY       1950   30        CALM       N/A
KEWAUNEE LAKESHO 2054   24     280/ 17/ 25 1007.9R
SHEBOYGAN LAKESH 2100   22     280/ 16/ 20 1011.4R
PORT WASHINGTON  2030   22     280/  9/ 18 1011.9R
MILWAUKEE LAKESH 2100   20     300/ 15/ 18   N/A
KENOSHA   LAKESH 2100   21     300/ 17/ 22 1012.5
$$

TC  - TEMPERATURE IN CELSIUS
VSB - VISIBILITY IN STATUTE MILES
WCI - WIND CHILL INDEX
HX  - HEAT INDEX





USA.gov is the U.S. government's official web portal to all federal, state and local government web resources and services.